When you browse on this site, cookies collect data to enhance your experience and personalize the content and advertising you see.
Visit our Privacy Policy to learn more. By continuing to use the site, you agree to this use of cookies and data.
  • In Hungary
  • List of Countries
  • For 7 days
  • Water Temperature
  • Satellite Maps
  • Weather Map
  • News
  • Weather Widgets
  • user-avatar
    Login

    Hourly Weather Leesburg

    Today, 23 February, Saturday

    Time Temperature Precipitation Wind Pressure Humidity
    00:00 +3°C° 0 mm 1 mps 764 mmHg 81%
    01:00 +3°C° 0 mm 1 mps 764 mmHg 81%
    02:00 +3°C° 0 mm 1 mps 763 mmHg 82%
    03:00 +3°C° 0 mm 1 mps 763 mmHg 83%
    04:00 +3°C° 0 mm 1 mps 763 mmHg 84%
    05:00 +3°C° 0 mm 1 mps 763 mmHg 85%
    06:00 +2°C° 0 mm 1 mps 763 mmHg 86%
    07:00 +2°C° 0 mm 1 mps 763 mmHg 86%
    08:00 +2°C° 0 mm 2 mps 763 mmHg 83%
    09:00 +3°C° 0 mm 2 mps 763 mmHg 80%
    10:00 +4°C° 0 mm 2 mps 763 mmHg 78%
    11:00 +4°C° 0.1 mm 2 mps 763 mmHg 78%
    12:00 +4°C° 0.1 mm 2 mps 762 mmHg 79%
    13:00 +3°C° 0.1 mm 3 mps 762 mmHg 80%
    14:00 +3°C° 0.2 mm 3 mps 761 mmHg 82%
    15:00 +3°C° 0.2 mm 3 mps 761 mmHg 83%
    16:00 +4°C° 0.2 mm 4 mps 760 mmHg 85%
    17:00 +3°C° 0.1 mm 4 mps 760 mmHg 87%
    18:00 +3°C° 0.1 mm 4 mps 759 mmHg 90%
    19:00 +3°C° 0.1 mm 4 mps 759 mmHg 93%
    20:00 +3°C° 0 mm 3 mps 758 mmHg 93%
    21:00 +3°C° 0 mm 3 mps 757 mmHg 94%
    22:00 +3°C° 0 mm 3 mps 757 mmHg 95%
    23:00 +3°C° 0.2 mm 3 mps 756 mmHg 96%

    Tomorrow, 24 February, Sunday

    Time Temperature Precipitation Wind Pressure Humidity
    00:00 +4°C° 0.2 mm 3 mps 755 mmHg 96%
    01:00 +4°C° 0.2 mm 3 mps 754 mmHg 97%
    02:00 +4°C° 4.3 mm 3 mps 753 mmHg 97%
    03:00 +6°C° 4.3 mm 2 mps 751 mmHg 97%
    04:00 +6°C° 4.3 mm 2 mps 750 mmHg 98%
    05:00 +6°C° 3 mm 2 mps 749 mmHg 98%
    06:00 +5°C° 3 mm 3 mps 748 mmHg 98%
    07:00 +6°C° 3 mm 4 mps 746 mmHg 97%
    08:00 +7°C° 0.3 mm 4 mps 745 mmHg 97%
    09:00 +7°C° 0.3 mm 4 mps 744 mmHg 96%
    10:00 +8°C° 0.3 mm 4 mps 743 mmHg 95%
    11:00 +12°C° 0 mm 5 mps 742 mmHg 88%
    12:00 +15°C° 0 mm 6 mps 740 mmHg 80%
    13:00 +17°C° 0 mm 7 mps 739 mmHg 73%
    14:00 +16°C° 0 mm 8 mps 740 mmHg 67%
    15:00 +13°C° 0 mm 9 mps 740 mmHg 61%
    16:00 +12°C° 0 mm 10 mps 740 mmHg 55%
    17:00 +10°C° 0 mm 9 mps 741 mmHg 58%
    18:00 +8°C° 0 mm 7 mps 743 mmHg 61%
    19:00 +5°C° 0 mm 5 mps 744 mmHg 65%
    20:00 +3°C° 0 mm 5 mps 744 mmHg 64%
    21:00 +3°C° 0 mm 5 mps 745 mmHg 64%
    22:00 +2°C° 0 mm 5 mps 745 mmHg 64%
    23:00 +1°C° 0 mm 5 mps 746 mmHg 62%

    Day after tomorrow, 25 February, Monday

    Time Temperature Precipitation Wind Pressure Humidity
    00:00 0°C° 0 mm 5 mps 746 mmHg 60%
    01:00 0°C° 0 mm 5 mps 746 mmHg 57%
    02:00 -2°C° 0 mm 6 mps 747 mmHg 55%
    03:00 -3°C° 0 mm 7 mps 748 mmHg 53%
    04:00 -3°C° 0 mm 7 mps 748 mmHg 51%
    05:00 -5°C° 0 mm 8 mps 749 mmHg 49%
    06:00 -5°C° 0 mm 9 mps 750 mmHg 46%
    07:00 -5°C° 0 mm 9 mps 752 mmHg 43%
    08:00 -4°C° 0 mm 10 mps 753 mmHg 39%
    09:00 -4°C° 0 mm 11 mps 754 mmHg 34%
    10:00 -3°C° 0 mm 12 mps 755 mmHg 30%
    11:00 -2°C° 0 mm 11 mps 755 mmHg 28%
    12:00 -1°C° 0 mm 11 mps 756 mmHg 27%
    13:00 +1°C° 0 mm 11 mps 756 mmHg 25%
    14:00 +1°C° 0 mm 10 mps 756 mmHg 26%
    15:00 +1°C° 0 mm 10 mps 756 mmHg 26%
    16:00 +1°C° 0 mm 9 mps 757 mmHg 26%
    17:00 0°C° 0 mm 7 mps 757 mmHg 29%
    18:00 -1°C° 0 mm 6 mps 758 mmHg 32%
    19:00 -2°C° 0 mm 4 mps 759 mmHg 35%
    20:00 -1°C° 0 mm 3 mps 760 mmHg 36%
    21:00 -2°C° 0 mm 3 mps 760 mmHg 36%
    22:00 -2°C° 0 mm 3 mps 761 mmHg 37%
    23:00 -2°C° 0 mm 2 mps 761 mmHg 37%

    26 February, Tuesday

    Time Temperature Precipitation Wind Pressure Humidity
    00:00 -3°C° 0 mm 2 mps 761 mmHg 37%
    01:00 -3°C° 0 mm 2 mps 762 mmHg 37%
    02:00 -1°C° 0 mm 1 mps 762 mmHg 37%
    03:00 -1°C° 0 mm 1 mps 762 mmHg 38%
    04:00 -1°C° 0 mm 1 mps 763 mmHg 38%
    05:00 -1°C° 0 mm 1 mps 763 mmHg 39%
    06:00 -1°C° 0 mm 1 mps 764 mmHg 40%
    07:00 -2°C° 0 mm 1 mps 764 mmHg 40%
    08:00 -2°C° 0 mm 2 mps 764 mmHg 38%
    09:00 -1°C° 0 mm 3 mps 764 mmHg 35%
    10:00 -1°C° 0 mm 4 mps 765 mmHg 33%
    11:00 +1°C° 0 mm 4 mps 764 mmHg 32%
    12:00 +3°C° 0 mm 4 mps 764 mmHg 32%
    13:00 +4°C° 0 mm 4 mps 764 mmHg 32%
    14:00 +5°C° 0 mm 4 mps 763 mmHg 34%
    15:00 +7°C° 0 mm 3 mps 763 mmHg 37%
    16:00 +7°C° 0 mm 3 mps 762 mmHg 39%
    17:00 +4°C° 0 mm 3 mps 762 mmHg 46%
    18:00 +4°C° 0 mm 2 mps 763 mmHg 53%
    19:00 +2°C° 0 mm 2 mps 763 mmHg 59%
    20:00 +1°C° 0 mm 2 mps 763 mmHg 60%
    21:00 -1°C° 0 mm 2 mps 763 mmHg 60%
    22:00 -1°C° 0 mm 2 mps 763 mmHg 60%
    23:00 -2°C° 0 mm 2 mps 763 mmHg 59%

    27 February, Wednesday

    Time Temperature Precipitation Wind Pressure Humidity
    00:00 -2°C° 0 mm 2 mps 763 mmHg 58%
    01:00 -2°C° 0 mm 2 mps 763 mmHg 58%
    02:00 -3°C° 0 mm 2 mps 763 mmHg 57%
    03:00 -1°C° 0 mm 1 mps 762 mmHg 56%
    04:00 -1°C° 0 mm 1 mps 762 mmHg 55%
    05:00 -1°C° 0 mm 1 mps 762 mmHg 54%
    06:00 -1°C° 0 mm 1 mps 762 mmHg 53%
    07:00 -1°C° 0 mm 1 mps 762 mmHg 52%
    08:00 -2°C° 0 mm 2 mps 761 mmHg 49%
    09:00 +1°C° 0 mm 2 mps 761 mmHg 46%
    10:00 +3°C° 0 mm 2 mps 761 mmHg 43%
    11:00 +5°C° 0 mm 2 mps 759 mmHg 45%
    12:00 +7°C° 0 mm 3 mps 758 mmHg 46%
    13:00 +8°C° 0 mm 3 mps 757 mmHg 48%
    14:00 +9°C° 0 mm 3 mps 756 mmHg 51%
    15:00 +10°C° 0 mm 4 mps 754 mmHg 53%
    16:00 +11°C° 0 mm 4 mps 753 mmHg 56%
    17:00 +10°C° 0 mm 4 mps 753 mmHg 63%
    18:00 +9°C° 0 mm 3 mps 753 mmHg 70%
    19:00 +7°C° 0 mm 3 mps 752 mmHg 78%
    20:00 +7°C° 0 mm 3 mps 752 mmHg 81%
    21:00 +7°C° 0 mm 3 mps 752 mmHg 84%
    22:00 +6°C° 0 mm 2 mps 751 mmHg 88%
    23:00 +6°C° 0 mm 2 mps 751 mmHg 88%

    28 February, Thursday

    Time Temperature Precipitation Wind Pressure Humidity
    00:00 +6°C° 0 mm 2 mps 751 mmHg 89%
    01:00 +6°C° 0 mm 2 mps 751 mmHg 89%
    02:00 +5°C° 0 mm 3 mps 752 mmHg 88%
    03:00 +4°C° 0 mm 3 mps 752 mmHg 88%
    04:00 +3°C° 0 mm 4 mps 752 mmHg 87%
    05:00 +1°C° 0 mm 4 mps 753 mmHg 84%
    06:00 0°C° 0 mm 4 mps 753 mmHg 81%
    07:00 -1°C° 0 mm 4 mps 754 mmHg 79%
    08:00 0°C° 0 mm 5 mps 755 mmHg 72%
    09:00 +1°C° 0 mm 5 mps 755 mmHg 65%
    10:00 +2°C° 0 mm 5 mps 756 mmHg 59%
    11:00 +5°C° 0 mm 5 mps 756 mmHg 54%
    12:00 +6°C° 0 mm 5 mps 756 mmHg 50%
    13:00 +7°C° 0 mm 5 mps 755 mmHg 46%
    14:00 +7°C° 0 mm 4 mps 755 mmHg 45%
    15:00 +6°C° 0 mm 4 mps 755 mmHg 43%
    16:00 +6°C° 0 mm 4 mps 755 mmHg 42%
    17:00 +5°C° 0 mm 3 mps 756 mmHg 46%
    18:00 +3°C° 0 mm 3 mps 756 mmHg 51%
    19:00 +3°C° 0 mm 2 mps 756 mmHg 55%
    20:00 +2°C° 0 mm 2 mps 757 mmHg 56%
    21:00 +2°C° 0 mm 2 mps 757 mmHg 56%
    22:00 +1°C° 0 mm 2 mps 757 mmHg 57%
    23:00 +2°C° 0.1 mm 2 mps 757 mmHg 58%
    Show more